Frederick, OK

7:27 AM CST on February 24, 2017 (GMT -0600)
Frederick Municipal

Weather History for KFDR - January, 2013

Change the Weather History Date:

Wednesday, January 16, 2013

  Actual Average (KLTS) Record (KLTS)
Temperature  
Mean Temperature 36 °F -  
Max Temperature 52 °F 50 °F 75 °F (2012)
Min Temperature 19 °F 26 °F 13 °F (2009)
Degree Days  
Heating Degree Days 30    
Moisture  
Dew Point 20 °F    
Average Humidity 58    
Maximum Humidity 81    
Minimum Humidity 27    
Precipitation  
Precipitation 0.00 in - - ()
Sea Level Pressure  
Sea Level Pressure 30.20 in    
Wind  
Wind Speed 8 mph (WNW)    
Max Wind Speed 14 mph    
Max Gust Speed -    
Visibility 10 miles    
Events      
Averages and records for this station are not official NWS values.
T = Trace of Precipitation, MM = Missing Value Source: NWS Daily Summary

Daily Weather History Graph

Daily Weather History Graph

Search for Another Location

Airport or City:

Trip Planner

Search our weather history database for the weather conditions in past years. The results will help you decide how hot, cold, wet, or windy it might be!

Date:

Astronomy

Jan. 16, 2013 Rise Set
Actual Time 7:41 AM CST 5:50 PM CST
Civil Twilight 7:14 AM CST 6:17 PM CST
Nautical Twilight 6:43 AM CST 6:48 PM CST
Astronomical Twilight 6:13 AM CST 7:18 PM CST
Moon 10:35 AM CST (1/16) 11:25 PM CST (1/16)
Length of Visible Light 11h 03m
Length of Day
10h 08m
Waxing Crescent, 28% of the Moon is Illuminated
Jan 16
Waxing Crescent
Jan 18
First Quarter
Jan 26
Full
Feb 3
Last Quarter
Feb 10
New

Hourly Weather History & Observations

Time (CST) Temp. Windchill Dew Point Humidity Pressure Visibility Wind Dir Wind Speed Gust Speed Precip Events Conditions
12:53 AM 25.0 °F 16.3 °F 15.1 °F 66% 30.24 in 10.0 mi NW 8.1 mph - N/A   Clear
2:53 AM 23.0 °F 14.7 °F 14.0 °F 68% 30.23 in 10.0 mi WNW 6.9 mph - N/A   Clear
3:53 AM 21.0 °F 12.4 °F 14.0 °F 74% 30.23 in 10.0 mi West 6.9 mph - N/A   Clear
4:53 AM 23.0 °F 14.7 °F 16.0 °F 74% 30.22 in 10.0 mi WNW 6.9 mph - N/A   Clear
5:53 AM 19.9 °F 14.9 °F 15.1 °F 81% 30.22 in 10.0 mi West 3.5 mph - N/A   Clear
6:53 AM 19.0 °F 12.3 °F 14.0 °F 81% 30.23 in 10.0 mi WSW 4.6 mph - N/A   Clear
7:53 AM 19.9 °F 12.1 °F 15.1 °F 81% 30.24 in 10.0 mi WSW 5.8 mph - N/A   Clear
8:53 AM 25.0 °F 17.1 °F 19.0 °F 78% 30.25 in 10.0 mi SW 6.9 mph - N/A   Clear
9:53 AM 30.9 °F 24.3 °F 21.9 °F 69% 30.25 in 10.0 mi West 6.9 mph - N/A   Clear
10:53 AM 36.0 °F 29.6 °F 21.9 °F 57% 30.23 in 10.0 mi WSW 8.1 mph - N/A   Clear
11:53 AM 42.1 °F 35.2 °F 19.9 °F 41% 30.19 in 10.0 mi WSW 12.7 mph - N/A   Clear
12:53 PM 46.0 °F 41.0 °F 17.1 °F 31% 30.16 in 10.0 mi West 10.4 mph - N/A   Partly Cloudy
1:53 PM 48.0 °F - 15.1 °F 27% 30.14 in 10.0 mi West 13.8 mph - N/A   Overcast
2:53 PM 48.9 °F - 16.0 °F 27% 30.13 in 10.0 mi WNW 12.7 mph - N/A   Overcast
3:53 PM 50.0 °F - 19.9 °F 31% 30.12 in 10.0 mi NW 12.7 mph - N/A   Overcast
4:53 PM 52.0 °F - 23.0 °F 32% 30.13 in 10.0 mi NW 10.4 mph - N/A   Overcast
5:53 PM 46.0 °F 43.1 °F 26.1 °F 46% 30.16 in 10.0 mi NW 5.8 mph - N/A   Clear
6:53 PM 45.0 °F 40.1 °F 28.0 °F 52% 30.18 in 10.0 mi NW 9.2 mph - N/A   Mostly Cloudy
7:53 PM 41.0 °F 36.4 °F 27.0 °F 57% 30.20 in 10.0 mi NNW 6.9 mph - N/A   Clear
8:53 PM 42.1 °F 36.6 °F 28.0 °F 58% 30.21 in 10.0 mi WNW 9.2 mph - N/A   Clear
9:53 PM 39.9 °F 33.9 °F 28.0 °F 63% 30.22 in 10.0 mi NW 9.2 mph - N/A   Clear
10:53 PM 37.9 °F 32.7 °F 28.0 °F 68% 30.23 in 10.0 mi WNW 6.9 mph - N/A   Clear
11:53 PM 37.0 °F 30.4 °F 28.0 °F 70% 30.24 in 10.0 mi WNW 9.2 mph - N/A   Clear